Ladysmith, WI

4:17 AM CDT on June 28, 2017 (GMT -0500)
Rusk County

Weather History for KRCX - May, 2014

Change the Weather History Date:

Wednesday, May 14, 2014

  Actual Average (KPBH) Record (KPBH)
Temperature  
Mean Temperature 46 °F -  
Max Temperature 56 °F 61 °F 87 °F (2007)
Min Temperature 35 °F 40 °F 28 °F (2016)
Degree Days  
Heating Degree Days 20    
Moisture  
Dew Point 31 °F    
Average Humidity 56    
Maximum Humidity 91    
Minimum Humidity 29    
Precipitation  
Precipitation 0.00 in - - ()
Sea Level Pressure  
Sea Level Pressure 30.17 in    
Wind  
Wind Speed 7 mph (WNW)    
Max Wind Speed 17 mph    
Max Gust Speed 23 mph    
Visibility 10 miles    
Events      
Averages and records for this station are not official NWS values.
T = Trace of Precipitation, MM = Missing Value Source: NWS Daily Summary

Daily Weather History Graph

Daily Weather History Graph

Search for Another Location

Airport or City:

Trip Planner

Search our weather history database for the weather conditions in past years. The results will help you decide how hot, cold, wet, or windy it might be!

Date:

Astronomy

May. 14, 2014 Rise Set
Actual Time 5:34 AM CDT 8:26 PM CDT
Civil Twilight 5:00 AM CDT 9:01 PM CDT
Nautical Twilight 4:16 AM CDT 9:45 PM CDT
Astronomical Twilight 3:24 AM CDT 10:37 PM CDT
Moon 8:31 PM CDT (5/14) 5:36 AM CDT (5/14)
Length of Visible Light 16h 01m
Length of Day
14h 52m
Full, 100% of the Moon is Illuminated
May 14
Full
May 14
Full
May 21
Last Quarter
May 28
New
Jun 5
First Quarter

Hourly Weather History & Observations

Time (CDT) Temp. Windchill Dew Point Humidity Pressure Visibility Wind Dir Wind Speed Gust Speed Precip Events Conditions
12:15 AM 43.9 °F 42.3 °F 35.6 °F 73% 30.14 in 10.0 mi WSW 3.5 mph - N/A   Clear
12:35 AM 42.8 °F 40.1 °F 34.3 °F 72% 30.15 in 10.0 mi WSW 4.6 mph - N/A   Clear
12:55 AM 43.0 °F 38.8 °F 35.6 °F 75% 30.15 in 10.0 mi West 6.9 mph - N/A   Clear
1:15 AM 41.9 °F 38.2 °F 34.9 °F 76% 30.15 in 10.0 mi West 5.8 mph - N/A   Clear
1:35 AM 42.4 °F 39.6 °F 35.4 °F 76% 30.16 in 10.0 mi WSW 4.6 mph - N/A   Clear
1:55 AM 41.9 °F 38.2 °F 34.9 °F 76% 30.16 in 10.0 mi WSW 5.8 mph - N/A   Clear
2:15 AM 41.2 °F 39.2 °F 34.9 °F 78% 30.16 in 10.0 mi WSW 3.5 mph - N/A   Clear
2:35 AM 40.5 °F 36.5 °F 35.1 °F 81% 30.16 in 10.0 mi West 5.8 mph - N/A   Clear
2:55 AM 40.5 °F 35.8 °F 35.2 °F 82% 30.16 in 10.0 mi West 6.9 mph - N/A   Clear
3:15 AM 39.9 °F 36.7 °F 34.9 °F 82% 30.16 in 10.0 mi West 4.6 mph - N/A   Clear
3:35 AM 39.4 °F 36.1 °F 34.9 °F 84% 30.16 in 10.0 mi West 4.6 mph - N/A   Clear
3:55 AM 38.8 °F - 34.7 °F 85% 30.17 in 10.0 mi Calm Calm - N/A   Clear
4:15 AM 37.6 °F 35.1 °F 33.4 °F 85% 30.16 in 10.0 mi SW 3.5 mph - N/A   Clear
4:35 AM 37.0 °F 34.5 °F 34.5 °F 91% 30.17 in 10.0 mi SW 3.5 mph - N/A   Clear
4:55 AM 37.2 °F 34.7 °F 33.8 °F 87% 30.17 in 10.0 mi WSW 3.5 mph - N/A   Clear
5:15 AM 36.0 °F - 33.1 °F 89% 30.17 in 10.0 mi Calm Calm - N/A   Clear
5:35 AM 35.6 °F - 33.1 °F 91% 30.17 in 10.0 mi Calm Calm - N/A   Clear
6:15 AM 37.6 °F - 34.3 °F 88% 30.18 in 10.0 mi Calm Calm - N/A   Clear
6:35 AM 36.9 °F 34.3 °F 33.8 °F 89% 30.19 in 10.0 mi SW 3.5 mph - N/A   Clear
6:55 AM 37.6 °F 35.1 °F 35.1 °F 91% 30.20 in 10.0 mi SSW 3.5 mph - N/A   Clear
7:15 AM 40.3 °F 38.2 °F 35.8 °F 84% 30.20 in 10.0 mi SW 3.5 mph - N/A   Clear
7:35 AM 41.9 °F 39.0 °F 35.8 °F 79% 30.21 in 10.0 mi West 4.6 mph - N/A   Clear
7:55 AM 42.8 °F 39.3 °F 36.1 °F 77% 30.21 in 10.0 mi West 5.8 mph - N/A   Clear
8:15 AM 44.1 °F 40.8 °F 36.3 °F 74% 30.21 in 10.0 mi WNW 5.8 mph - N/A   Clear
8:35 AM 45.5 °F 41.8 °F 35.8 °F 69% 30.21 in 10.0 mi West 6.9 mph - N/A   Clear
8:55 AM 46.6 °F - 35.4 °F 65% 30.23 in 10.0 mi West 6.9 mph - N/A   Clear
9:35 AM 49.1 °F - 33.8 °F 56% 30.23 in 10.0 mi WNW 9.2 mph - N/A   Clear
9:55 AM 48.4 °F - 32.2 °F 54% 30.22 in 10.0 mi West 12.7 mph 18.4 mph N/A   Scattered Clouds
10:15 AM 50.9 °F - 31.3 °F 47% 30.22 in 10.0 mi WNW 16.1 mph 19.6 mph N/A   Scattered Clouds
10:35 AM 50.7 °F - 30.4 °F 46% 30.22 in 10.0 mi NW 15.0 mph 20.7 mph N/A   Scattered Clouds
10:55 AM 51.1 °F - 28.8 °F 42% 30.21 in 10.0 mi WNW 17.3 mph 23.0 mph N/A   Mostly Cloudy
11:15 AM 52.0 °F - 27.7 °F 39% 30.20 in 10.0 mi WNW 11.5 mph 17.3 mph N/A   Scattered Clouds
11:55 AM 52.9 °F - 27.9 °F 38% 30.22 in 10.0 mi WNW 12.7 mph 19.6 mph N/A   Scattered Clouds
12:35 PM 52.7 °F - 28.6 °F 40% 30.21 in 10.0 mi WNW 11.5 mph - N/A   Overcast
12:55 PM 52.9 °F - 28.2 °F 39% 30.20 in 10.0 mi WNW 12.7 mph 16.1 mph N/A   Mostly Cloudy
1:15 PM 53.6 °F - 27.9 °F 37% 30.20 in 10.0 mi WNW 9.2 mph 18.4 mph N/A   Mostly Cloudy
1:35 PM 54.9 °F - 28.0 °F 36% 30.20 in 10.0 mi West 11.5 mph 18.4 mph N/A   Mostly Cloudy
1:55 PM 53.4 °F - 28.6 °F 38% 30.20 in 10.0 mi WNW 15.0 mph - N/A   Overcast
2:15 PM 54.0 °F - 28.6 °F 38% 30.19 in 10.0 mi WNW 9.2 mph - N/A   Mostly Cloudy
2:35 PM 55.0 °F - 29.7 °F 38% 30.18 in 10.0 mi West 8.1 mph - N/A   Mostly Cloudy
2:55 PM 54.0 °F - 28.9 °F 38% 30.17 in 10.0 mi NW 6.9 mph - N/A   Mostly Cloudy
3:15 PM 54.5 °F - 28.0 °F 36% 30.18 in 10.0 mi NW 8.1 mph 17.3 mph N/A   Mostly Cloudy
3:35 PM 55.9 °F - 28.6 °F 35% 30.18 in 10.0 mi West 10.4 mph 16.1 mph N/A   Mostly Cloudy
3:55 PM 56.3 °F - 27.3 °F 33% 30.18 in 10.0 mi WNW 11.5 mph - N/A   Scattered Clouds
4:15 PM 54.7 °F - 26.2 °F 33% 30.17 in 10.0 mi West 8.1 mph - N/A   Mostly Cloudy
4:35 PM 55.8 °F - 26.2 °F 32% 30.16 in 10.0 mi West 4.6 mph - N/A   Mostly Cloudy
4:55 PM 54.7 °F - 26.1 °F 33% 30.17 in 10.0 mi WNW 5.8 mph - N/A   Scattered Clouds
5:15 PM 55.9 °F - 26.4 °F 32% 30.16 in 10.0 mi WNW 4.6 mph - N/A   Scattered Clouds
5:35 PM 55.6 °F - 26.4 °F 33% 30.16 in 10.0 mi WNW 9.2 mph - N/A   Scattered Clouds
5:55 PM 55.8 °F - 26.1 °F 32% 30.16 in 10.0 mi WNW 10.4 mph - N/A   Clear
6:15 PM 56.3 °F - 23.9 °F 29% 30.15 in 10.0 mi West 4.6 mph - N/A   Scattered Clouds
6:35 PM 56.3 °F - 24.3 °F 29% 30.14 in 10.0 mi WNW 15.0 mph - N/A   Mostly Cloudy
6:55 PM 55.4 °F - 25.0 °F 31% 30.13 in 10.0 mi NW 9.2 mph - N/A   Scattered Clouds
7:15 PM 53.8 °F - 25.3 °F 33% 30.13 in 10.0 mi North 8.1 mph - N/A   Mostly Cloudy
7:35 PM 54.0 °F - 25.2 °F 33% 30.13 in 10.0 mi North 6.9 mph - N/A   Scattered Clouds
7:55 PM 53.1 °F - 25.5 °F 34% 30.13 in 10.0 mi North 5.8 mph - N/A   Scattered Clouds
8:15 PM 52.2 °F - 25.7 °F 36% 30.13 in 10.0 mi North 9.2 mph - N/A   Scattered Clouds
8:35 PM 51.1 °F - 27.7 °F 40% 30.13 in 10.0 mi North 5.8 mph - N/A   Scattered Clouds
8:55 PM 49.8 °F - 28.4 °F 44% 30.15 in 10.0 mi North 6.9 mph - N/A   Scattered Clouds
9:15 PM 48.6 °F - 30.6 °F 50% 30.15 in 10.0 mi North 8.1 mph - N/A   Clear
9:35 PM 48.7 °F - 29.7 °F 48% 30.15 in 10.0 mi NNE 12.7 mph - N/A   Clear
9:55 PM 48.2 °F - 30.0 °F 49% 30.16 in 10.0 mi NNE 11.5 mph 19.6 mph N/A   Clear
10:15 PM 47.1 °F - 29.5 °F 50% 30.17 in 10.0 mi NNE 12.7 mph - N/A   Clear
10:35 PM 45.9 °F 39.4 °F 29.1 °F 52% 30.18 in 10.0 mi NNE 15.0 mph - N/A   Clear
10:55 PM 45.0 °F 39.7 °F 29.8 °F 55% 30.18 in 10.0 mi North 10.4 mph - N/A   Clear
11:15 PM 45.0 °F 38.5 °F 28.9 °F 53% 30.18 in 10.0 mi NNE 13.8 mph 19.6 mph N/A   Clear
11:35 PM 44.1 °F 37.7 °F 29.1 °F 56% 30.17 in 10.0 mi NNE 12.7 mph - N/A   Clear
11:55 PM 43.7 °F 38.6 °F 29.1 °F 57% 30.17 in 10.0 mi NNE 9.2 mph - N/A   Clear